Location: Arbon
(43.0005°N, 0.7472°E)
Time: 11:04:23
(UTC+00:00)

USA 234 - Pass Details

Date: 22 April 2026
Orbit: 1102 x 1106 km, 123.0° (Epoch: 4 January)

Event Time Altitude Azimuth Distance (km) Brightness Sun altitude
Rises 20:12:16 0° 49° (NE) 3,926 6.0 -14.8°
Reaches altitude 10° 20:14:45 10° 51° (NE) 2,966 5.4 -15.1°
Maximum altitude 20:21:19 76° 137° (SE) 1,137 3.2 -16.1°
Drops below altitude 10° 20:27:51 10° 223° (SW) 2,956 5.6 -17.1°
Sets 20:30:20 0° 225° (SW) 3,912 6.3 -17.5°
